Flag for Lebanon Weather past 2 weeks in Sidon, Lebanon

Now
86 °F

Sunny.


Feels Like: 92 °F
Forecast: 77 / 88 °F
Wind: 8 mph from West

Location: Beirut Airport

Current Time: Aug 22, 2014 at 11:34:58 AM

Latest Report: Aug 22, 2014 at 11:00 AM


Visibility: 4 mi

Pressure: 29.86 "Hg

Humidity: 62%

Dew point: 72 °F

Location of SidonLocation

Historic Weather in Sidon — Graph

°F

Sidon temperature yesterday

Maximum temperature yesterday: 86 °F (at 3:00 PM)
Minimum temperature yesterday: 79 °F (at 12:00 AM)
Average temperature yesterday: 82 °F

Past Weeks' High & Low Weather Summary

 TemperatureHumidityPressure
High88 °F (Aug 9, 12:00 PM)84% (Aug 15, 1:00 AM)29.98 "Hg (Aug 15, 1:00 AM)
Low77 °F (Aug 8, 5:00 AM)48% (Aug 9, 7:00 AM)29.62 "Hg (Aug 18, 3:00 AM)
Average83 °F68%29.81 "Hg
* Reported Aug 7 10:00 AM — Aug 22 10:00 AM, Sidon, Weather by CustomWeather, © 2014

Note: Actual official high and low records may vary slightly from our data, if they occured in-between our weather recording intervals... More about our weather records

Advertising

Sidon weather history for previous 24 hours

 ConditionsComfort  
Time TempWeatherWind HumidityBarometerVisibility
10:00 AM
Aug 22
84 °FSunny.5 mph66%29.86 "Hg4 mi
9:00 AM84 °FSunny.5 mph62%29.86 "Hg4 mi
8:00 AM82 °FPassing clouds.3 mph58%29.86 "Hg5 mi
7:00 AM79 °FPassing clouds.5 mph61%29.86 "Hg5 mi
6:00 AM79 °FPassing clouds.5 mph65%29.83 "Hg5 mi
5:00 AM79 °FPassing clouds.6 mph70%29.83 "Hg5 mi
4:00 AM81 °FPassing clouds.5 mph66%29.83 "Hg5 mi
3:00 AM81 °FPassing clouds.6 mph70%29.86 "HgN/A
2:00 AM81 °FPassing clouds.6 mph70%29.86 "HgN/A
1:00 AM81 °FPassing clouds.7 mph70%29.86 "HgN/A
12:00 AM82 °FPassing clouds.5 mph66%29.86 "HgN/A
11:00 PM
Aug 21
82 °FPassing clouds.8 mph66%29.89 "Hg5 mi
10:00 PM82 °FPassing clouds.7 mph66%29.89 "Hg5 mi
9:00 PM82 °FPassing clouds.7 mph66%29.89 "Hg5 mi
8:00 PM82 °FPassing clouds.10 mph66%29.86 "Hg5 mi
7:00 PM84 °FPassing clouds.10 mph66%29.86 "Hg5 mi
6:00 PM84 °FScattered clouds.10 mph62%29.89 "Hg5 mi
5:00 PM86 °FScattered clouds.9 mph55%29.89 "Hg5 mi
4:00 PM86 °FPassing clouds.9 mph49%29.92 "Hg5 mi
3:00 PM86 °FPassing clouds.9 mph52%29.92 "Hg5 mi
2:00 PM84 °FPassing clouds.8 mph55%29.95 "Hg5 mi
1:00 PM84 °FPassing clouds.8 mph58%29.95 "Hg5 mi
12:00 PM84 °FScattered clouds.8 mph58%29.95 "Hg5 mi
11:00 AM84 °FScattered clouds.8 mph58%29.95 "Hg5 mi
Weather by CustomWeather, © 2014

See weather overviewHow to use our weather pages